Weather History for Central Park, NY

Change the Weather History Date:

Wednesday, March 31, 2010

  Actual Average Record
Temperature  
Mean Temperature 51 °F 48 °F  
Max Temperature 57 °F 55 °F 86 °F (1998)
Min Temperature 45 °F 40 °F 14 °F (1923)
Degree Days  
Heating Degree Days 14 18  
Month to date heating degree days 512 699  
Since 1 July heating degree days 4044 4222  
Cooling Degree Days 0 0  
Month to date cooling degree days 0 1  
Year to date cooling degree days 0 1  
Moisture  
Dew Point 44 °F    
Average Humidity 77    
Maximum Humidity 93    
Minimum Humidity 61    
Precipitation  
Precipitation 0.01 in 0.15 in 2.20 in (1934)
Month to date precipitation 10.69 4.36  
Year to date precipitation 19.46 11.10  
Snow  
Snow 0.00 in 0.00 in 2.80 in (1890)
Month to date snowfall T 3.9  
Since 1 July snowfall 51.4 25.2  
Snow Depth 0.00 in    
Sea Level Pressure  
Sea Level Pressure 29.72 in    
Wind  
Wind Speed 6 mph (NW)    
Max Wind Speed 14 mph    
Max Gust Speed 18 mph    
Visibility 9 miles    
Events Rain    
T = Trace of Precipitation, MM = Missing Value Source: NWS Daily Summary

Daily Weather History Graph

Daily Weather History Graph

Search for Another Location

Airport:

Trip Planner

Search our weather history database for the weather conditions in past years. The results will help you decide how hot, cold, wet, or windy it might be!

Date:

Astronomy

Mar. 31, 2010 Rise Set
Actual Time 6:41 AM EDT 7:19 PM EDT
Civil Twilight 6:13 AM EDT 7:47 PM EDT
Nautical Twilight 5:40 AM EDT 8:19 PM EDT
Astronomical Twilight 5:07 AM EDT 8:53 PM EDT
Moon 9:41 PM EDT (3/31) 7:04 AM EDT (3/31)
Length of Visible Light 13h 33m
Length of Day
12h 38m
Full, 97% of the Moon is Illuminated
Mar 31
Full
Apr 6
Last Quarter
Apr 14
New
Apr 21
First Quarter
Apr 28
Full

Hourly Weather History & Observations

Time (EDT) Temp. Windchill Dew Point Humidity Pressure Visibility Wind Dir Wind Speed Gust Speed Precip Events Conditions
12:41 AM 44.6 °F 41.4 °F 42.8 °F 93% 29.52 in 10.0 mi Variable 5.8 mph - N/A   Overcast
12:51 AM 45.0 °F 41.8 °F 43.0 °F 93% 29.50 in 9.0 mi Variable 5.8 mph - N/A   Overcast
1:51 AM 45.0 °F 40.6 °F 43.0 °F 93% 29.52 in 10.0 mi NW 8.1 mph 17.3 mph 0.01 in Rain Light Rain
2:03 AM 44.6 °F 39.7 °F 42.8 °F 93% 29.54 in 8.0 mi NW 9.2 mph 17.3 mph 0.00 in Rain Light Rain
2:43 AM 46.4 °F 41.5 °F 42.8 °F 87% 29.55 in 10.0 mi NNW 10.4 mph 16.1 mph 0.00 in   Overcast
2:51 AM 46.0 °F 41.0 °F 43.0 °F 89% 29.52 in 10.0 mi NW 10.4 mph - 0.00 in   Overcast
3:18 AM 46.4 °F 42.4 °F 42.8 °F 87% 29.56 in 10.0 mi NW 8.1 mph - N/A   Overcast
3:51 AM 46.9 °F - 43.0 °F 86% 29.55 in 10.0 mi NW 10.4 mph 18.4 mph N/A   Overcast
4:43 AM 46.4 °F 43.5 °F 44.6 °F 93% 29.60 in 6.0 mi Variable 5.8 mph - N/A   Overcast
4:51 AM 46.0 °F 42.5 °F 44.1 °F 93% 29.57 in 7.0 mi Variable 6.9 mph - N/A   Overcast
5:04 AM 46.4 °F 45.2 °F 44.6 °F 93% 29.60 in 5.0 mi Variable 3.5 mph - N/A   Overcast
5:37 AM 46.4 °F 42.9 °F 44.6 °F 93% 29.61 in 6.0 mi WNW 6.9 mph - N/A   Overcast
5:51 AM 46.0 °F 43.1 °F 44.1 °F 93% 29.60 in 7.0 mi Variable 5.8 mph - N/A   Overcast
5:58 AM 44.6 °F 42.2 °F 44.6 °F 100% 29.63 in 7.0 mi Variable 4.6 mph - N/A   Overcast
6:20 AM 44.6 °F 42.2 °F 42.8 °F 93% 29.64 in 9.0 mi Variable 4.6 mph - N/A   Overcast
6:51 AM 46.0 °F 44.8 °F 43.0 °F 89% 29.65 in 9.0 mi Variable 3.5 mph - N/A   Overcast
7:51 AM 46.0 °F 43.9 °F 43.0 °F 89% 29.68 in 10.0 mi Variable 4.6 mph - N/A   Overcast
8:51 AM 46.9 °F - 42.1 °F 83% 29.71 in 10.0 mi Variable 3.5 mph - N/A   Overcast
9:35 AM 48.2 °F - 44.6 °F 87% 29.74 in 10.0 mi Variable 6.9 mph - N/A   Overcast
9:51 AM 48.9 °F - 44.1 °F 83% 29.73 in 10.0 mi Variable 4.6 mph - N/A   Overcast
9:58 AM 48.2 °F - 44.6 °F 87% 29.75 in 10.0 mi Variable 5.8 mph - N/A   Overcast
10:51 AM 51.1 °F - 44.1 °F 77% 29.75 in 10.0 mi Variable 5.8 mph 16.1 mph N/A   Overcast
11:51 AM 51.1 °F - 44.1 °F 77% 29.78 in 10.0 mi Calm Calm - N/A   Overcast
12:51 PM 53.1 °F - 44.1 °F 71% 29.80 in 10.0 mi Variable 4.6 mph 18.4 mph N/A   Overcast
1:11 PM 55.4 °F - 44.6 °F 67% 29.83 in 10.0 mi Variable 6.9 mph - N/A   Overcast
1:51 PM 55.0 °F - 45.0 °F 69% 29.81 in 10.0 mi Variable 4.6 mph - N/A   Overcast
2:33 PM 55.4 °F - 44.6 °F 67% 29.84 in 10.0 mi Variable 6.9 mph - N/A   Overcast
2:51 PM 55.0 °F - 45.0 °F 69% 29.82 in 10.0 mi Variable 5.8 mph - N/A   Overcast
3:51 PM 55.9 °F - 45.0 °F 67% 29.84 in 10.0 mi Variable 5.8 mph - N/A   Overcast
4:51 PM 55.9 °F - 44.1 °F 64% 29.84 in 10.0 mi North 8.1 mph 17.3 mph N/A   Overcast
5:51 PM 57.0 °F - 44.1 °F 62% 29.87 in 10.0 mi Variable 4.6 mph - N/A   Mostly Cloudy
6:51 PM 55.0 °F - 43.0 °F 64% 29.90 in 10.0 mi WNW 9.2 mph - N/A   Mostly Cloudy
7:51 PM 54.0 °F - 43.0 °F 66% 29.92 in 10.0 mi Variable 3.5 mph - N/A   Partly Cloudy
8:51 PM 54.0 °F - 43.0 °F 66% 29.95 in 10.0 mi West 8.1 mph - N/A   Overcast
9:51 PM 53.1 °F - 43.0 °F 69% 29.96 in 10.0 mi NNW 8.1 mph - N/A   Overcast
10:51 PM 53.1 °F - 44.1 °F 71% 29.98 in 10.0 mi Variable 3.5 mph - N/A   Overcast
11:51 PM 51.1 °F - 43.0 °F 74% 30.01 in 10.0 mi Variable 3.5 mph - N/A   Partly Cloudy